EW7966 Weather Reports


Display with metric or nautical units.
time (UTC)temp
F
wind
direction
speed
MPH
gust
MPH
rain 1hr
in
rain 24hr
in
rain mn
in
humidity
%
barometer
mb
20260901070007 57 184 1.0 2.0 0.00 0.00 0.00 75 1021.6
20260901070002 57 184 0.0 2.0 0.00 0.00 0.00 75 1007.0
20260901064505 59 184 1.0 3.0 0.00 0.00 0.00 73 1021.6
20260901064503 59 184 1.0 3.0 0.00 0.00 0.00 73 1006.9
20260901064006 59 184 1.0 2.0 0.00 0.00 0.00 73 1021.5
20260901063504 59 184 0.0 1.0 0.00 0.00 0.00 73 1021.3
20260901063005 58 184 0.0 2.0 0.00 0.00 0.00 73 1021.2
20260901062505 59 184 1.0 2.0 0.00 0.00 0.00 73 1021.4
20260901061502 59 184 0.0 2.0 0.00 0.00 0.00 72 1006.7
20260901061006 59 184 1.0 2.0 0.00 0.00 0.00 72 1021.5
20260901060505 59 184 0.0 4.0 0.00 0.00 0.00 72 1021.5
20260901060008 59 184 3.0 4.0 0.00 0.00 0.00 73 1021.6
20260901060004 59 184 2.0 4.0 0.00 0.00 0.00 73 1006.9
20260901055505 59 184 1.0 3.0 0.00 0.01 0.00 73 1021.6
20260901055006 59 184 1.0 3.0 0.00 0.01 0.00 74 1021.7
20260901054558 59 184 1.0 3.0 0.00 0.01 0.00 74 1006.9
20260901054500 59 184 1.0 3.0 0.00 0.01 0.00 74 1021.6
20260901054006 59 184 0.0 2.0 0.00 0.01 0.00 75 1021.8
20260901053504 59 184 1.0 2.0 0.00 0.01 0.00 75 1021.8
20260901053007 59 184 0.0 4.0 0.00 0.01 0.00 75 1021.8
20260901053004 59 184 0.0 4.0 0.00 0.01 0.00 75 1007.0
20260901052504 59 184 2.0 4.0 0.00 0.01 0.00 75 1021.9
20260901051503 59 184 1.0 3.0 0.00 0.01 0.00 75 1007.0
20260901051006 60 184 2.0 4.0 0.00 0.01 0.00 74 1021.8
20260901050506 60 184 1.0 9.0 0.00 0.01 0.00 73 1021.8
20260901050006 60 184 5.0 9.0 0.00 0.01 0.00 74 1022.0
20260901050004 60 184 5.0 9.0 0.00 0.01 0.00 74 1007.2
20260901045506 60 189 4.0 9.0 0.00 0.02 0.00 75 1022.0
20260901044507 59 171 7.0 10.0 0.00 0.02 0.00 76 1021.8
20260901044006 59 144 7.0 8.0 0.00 0.02 0.00 76 1022.0
20260901043007 59 138 6.0 8.0 0.00 0.02 0.00 76 1021.8
20260901043003 59 138 5.0 8.0 0.00 0.02 0.00 76 1007.0
20260901042505 59 161 4.0 7.0 0.00 0.02 0.00 76 1021.6
20260901041505 60 120 5.0 7.0 0.00 0.02 0.00 75 1021.6
20260901041503 60 120 4.0 7.0 0.00 0.02 0.00 75 1006.8
20260901040505 60 265 2.0 6.0 0.00 0.02 0.00 74 1021.7
20260901040003 60 265 1.0 6.0 0.00 0.02 0.00 74 1006.9
20260901035505 61 265 2.0 5.0 0.00 0.02 0.00 73 1021.6
20260901035007 61 265 2.0 5.0 0.00 0.02 0.00 73 1021.6
20260901034506 61 220 3.0 6.0 0.00 0.02 0.00 73 1021.8
20260901034007 61 275 1.0 7.0 0.00 0.02 0.00 72 1022.0
20260901033505 61 275 3.0 11.0 0.00 0.02 0.00 72 1021.9
20260901033059 62 273 2.0 13.0 0.00 0.02 0.00 72 1007.0
20260901033001 62 273 4.0 13.0 0.00 0.02 0.00 72 1021.8
20260901032505 62 304 6.0 14.0 0.00 0.02 0.00 72 1021.8
20260901032006 62 302 7.0 15.0 0.00 0.02 0.00 72 1021.8
20260901031505 62 287 10.0 17.0 0.00 0.02 0.00 71 1021.8
20260901031503 62 287 9.0 17.0 0.00 0.02 0.00 71 1007.1
20260901031001 63 288 11.0 20.0 0.00 0.02 0.00 68 1021.8
20260901030506 63 311 11.0 18.0 0.00 0.02 0.00 67 1021.8
20260901030007 64 290 9.0 17.0 0.00 0.02 0.00 65 1021.9
20260901030005 64 290 8.0 17.0 0.00 0.02 0.00 65 1007.3
20260901025506 64 312 10.0 14.0 0.00 0.02 0.00 63 1021.9
20260901025006 65 312 6.0 12.0 0.00 0.02 0.00 62 1021.8
20260901024505 65 277 5.0 17.0 0.00 0.02 0.00 61 1021.8
20260901024502 65 277 5.0 17.0 0.00 0.02 0.00 61 1007.2
20260901024006 65 284 7.0 14.0 0.00 0.02 0.00 60 1021.7
20260901023506 65 328 5.0 14.0 0.00 0.02 0.00 59 1021.5
20260901023006 66 342 7.0 14.0 0.00 0.02 0.00 59 1021.2
20260901023003 66 262 6.0 14.0 0.00 0.02 0.00 59 1006.6
20260901022501 67 210 8.0 21.0 0.00 0.02 0.00 57 1021.2
20260901022007 68 331 9.0 21.0 0.00 0.02 0.00 52 1021.0
20260901021504 69 241 6.0 11.0 0.00 0.02 0.00 47 1020.8
20260901021006 69 200 2.0 4.0 0.00 0.02 0.00 47 1020.3
20260901020008 70 200 2.0 6.0 0.00 0.02 0.00 45 1019.7
20260901020005 70 200 1.0 6.0 0.00 0.02 0.00 45 1005.1
20260901015505 70 200 4.0 8.0 0.00 0.02 0.00 45 1019.7
20260901015007 70 180 6.0 8.0 0.00 0.02 0.00 45 1019.5
20260901014504 70 170 6.0 10.0 0.00 0.02 0.00 46 1019.4
20260901014502 70 170 5.0 10.0 0.00 0.02 0.00 46 1004.8
20260901014006 70 176 6.0 10.0 0.00 0.02 0.00 46 1019.3
20260901013007 70 142 6.0 10.0 0.00 0.02 0.00 46 1019.3
20260901013004 70 142 6.0 10.0 0.00 0.02 0.00 46 1004.6
20260901012012 70 140 9.0 13.0 0.00 0.02 0.00 46 1019.3
20260901011506 70 162 8.0 12.0 0.00 0.02 0.00 46 1019.3
20260901011006 70 151 6.0 11.0 0.00 0.02 0.00 46 1019.3
20260901010505 70 161 7.0 12.0 0.00 0.02 0.00 46 1019.3
20260901010007 71 136 8.0 13.0 0.00 0.02 0.00 45 1019.3
20260901010004 71 136 8.0 13.0 0.00 0.02 0.00 45 1004.6
20260901005506 71 150 10.0 16.0 0.00 0.02 0.00 44 1019.2
20260901005007 71 159 11.0 17.0 0.00 0.02 0.00 43 1019.3
20260901004505 72 158 11.0 19.0 0.00 0.02 0.00 43 1019.5
20260901003506 74 127 13.0 17.0 0.00 0.02 0.00 40 1019.7
20260901003007 75 109 10.0 20.0 0.00 0.02 0.00 40 1019.7
20260901002505 75 105 14.0 20.0 0.00 0.02 0.00 41 1019.7
20260901002006 75 76 12.0 18.0 0.00 0.02 0.00 43 1019.6
20260901001502 75 92 10.0 18.0 0.00 0.02 0.00 42 1005.2
20260901001006 76 96 12.0 18.0 0.00 0.02 0.00 41 1019.7
20260901000505 76 94 10.0 16.0 0.00 0.02 0.00 42 1019.8
20260901000004 76 92 10.0 16.0 0.00 0.02 0.00 40 1005.4
20260831235505 77 110 8.0 15.0 0.00 0.02 0.00 39 1019.9
20260831234506 77 107 11.0 17.0 0.00 0.02 0.00 38 1005.3
20260831234007 77 113 9.0 13.0 0.00 0.02 0.00 37 1019.9
20260831233506 77 109 8.0 12.0 0.00 0.02 0.00 38 1019.8
20260831233004 77 104 7.0 12.0 0.00 0.02 0.00 38 1005.5
20260831232008 77 78 6.0 12.0 0.00 0.02 0.00 37 1020.0
20260831231505 77 98 8.0 12.0 0.00 0.02 0.00 37 1020.0
20260831231503 77 98 8.0 12.0 0.00 0.02 0.00 37 1005.8
20260831230506 77 67 6.0 11.0 0.00 0.02 0.00 38 1020.0
20260831230009 76 57 6.0 11.0 0.00 0.02 0.00 37 1020.0
20260831230004 76 57 6.0 11.0 0.00 0.02 0.00 37 1005.9
20260831225505 76 87 7.0 9.0 0.00 0.02 0.00 38 1020.1
20260831225002 76 83 4.0 8.0 0.00 0.02 0.00 37 1020.1
20260831224505 76 99 5.0 9.0 0.00 0.02 0.00 37 1020.3
20260831224503 76 99 5.0 9.0 0.00 0.02 0.00 37 1006.2
20260831224007 77 84 6.0 11.0 0.00 0.02 0.00 36 1020.3
20260831223505 77 78 4.0 11.0 0.00 0.02 0.00 34 1020.2
20260831223005 78 106 2.0 9.0 0.00 0.02 0.00 34 1020.4
20260831223003 78 106 2.0 9.0 0.00 0.02 0.00 34 1006.3
20260831222505 78 90 5.0 11.0 0.00 0.02 0.00 33 1020.5
20260831221503 78 128 1.0 9.0 0.00 0.02 0.00 32 1006.6
20260831220011 78 94 5.0 9.0 0.00 0.02 0.00 32 1020.7
20260831220003 78 94 5.0 9.0 0.00 0.02 0.00 32 1006.7
20260831215504 77 130 4.0 8.0 0.00 0.02 0.00 33 1020.7
20260831214504 77 91 3.0 9.0 0.00 0.02 0.00 35 1020.6
20260831213505 77 154 4.0 7.0 0.00 0.02 0.00 33 1020.9
20260831213003 77 124 3.0 7.0 0.00 0.02 0.00 35 1007.0
20260831212505 76 163 5.0 9.0 0.00 0.02 0.00 35 1021.1
20260831212007 76 150 3.0 9.0 0.00 0.02 0.00 35 1021.1
20260831211505 76 89 4.0 9.0 0.00 0.02 0.00 35 1021.1
20260831211503 76 89 3.0 9.0 0.00 0.02 0.00 35 1007.1
20260831211006 77 119 7.0 9.0 0.00 0.02 0.00 34 1021.2
20260831210505 77 112 6.0 9.0 0.00 0.02 0.00 35 1021.1
20260831210006 77 149 6.0 10.0 0.00 0.02 0.00 35 1021.1
20260831210003 77 149 5.0 10.0 0.00 0.02 0.00 35 1007.1
20260831205006 77 174 7.0 12.0 0.00 0.02 0.00 34 1021.3
20260831204505 76 171 7.0 10.0 0.00 0.02 0.00 34 1021.4
20260831204503 76 171 6.0 10.0 0.00 0.02 0.00 34 1007.3
20260831204005 76 148 5.0 9.0 0.00 0.02 0.00 34 1021.4
20260831203505 76 159 3.0 8.0 0.00 0.02 0.00 32 1021.5
20260831203007 76 138 3.0 10.0 0.00 0.02 0.00 34 1021.6
20260831203002 76 138 2.0 10.0 0.00 0.02 0.00 34 1007.5
20260831202504 76 169 5.0 10.0 0.00 0.02 0.00 36 1021.6
20260831202006 76 138 5.0 10.0 0.00 0.02 0.00 35 1021.6
20260831201559 76 93 7.0 11.0 0.00 0.02 0.00 36 1007.7
20260831201505 76 107 7.0 11.0 0.00 0.02 0.00 35 1021.7
20260831201007 77 134 7.0 11.0 0.00 0.02 0.00 35 1021.6
20260831200504 77 61 5.0 9.0 0.00 0.02 0.00 35 1021.7
20260831200008 76 164 4.0 10.0 0.00 0.02 0.00 34 1007.8
20260831195505 76 130 7.0 10.0 0.00 0.02 0.00 37 1021.8
20260831195007 77 128 5.0 10.0 0.00 0.02 0.00 35 1021.8
20260831194505 77 107 5.0 13.0 0.00 0.02 0.00 34 1021.9
20260831194503 77 107 4.0 13.0 0.00 0.02 0.00 34 1007.9
20260831194005 77 120 5.0 11.0 0.00 0.02 0.00 35 1021.9
20260831193505 77 96 6.0 10.0 0.00 0.02 0.00 34 1021.9
20260831193006 78 105 6.0 9.0 0.00 0.02 0.00 33 1022.0
20260831193003 78 117 6.0 9.0 0.00 0.02 0.00 33 1008.0
20260831192006 78 137 6.0 11.0 0.00 0.02 0.00 35 1022.0
20260831191506 78 46 5.0 11.0 0.00 0.02 0.00 35 1022.0
20260831191503 78 46 5.0 11.0 0.00 0.02 0.00 35 1008.0
20260831191008 77 57 4.0 11.0 0.00 0.02 0.00 35 1022.1
20260831190006 77 64 3.0 7.0 0.00 0.02 0.00 34 1022.2
20260831190003 77 64 2.0 7.0 0.00 0.02 0.00 34 1008.2
20260831185505 77 327 2.0 10.0 0.00 0.02 0.00 37 1022.3
20260831185006 77 44 6.0 10.0 0.00 0.02 0.00 35 1022.4
20260831184505 77 47 3.0 11.0 0.00 0.02 0.00 34 1022.4
20260831184503 77 47 3.0 11.0 0.00 0.02 0.00 34 1008.3
20260831184006 77 46 5.0 11.0 0.00 0.02 0.00 36 1022.4
20260831183507 76 345 4.0 9.0 0.00 0.02 0.00 38 1022.4
20260831183006 76 61 4.0 9.0 0.00 0.02 0.00 36 1022.4
20260831183004 76 61 3.0 9.0 0.00 0.02 0.00 36 1008.4
20260831182506 75 50 3.0 7.0 0.00 0.02 0.00 36 1022.6
20260831182007 75 56 3.0 7.0 0.00 0.02 0.00 35 1022.6
20260831181504 76 62 4.0 6.0 0.00 0.02 0.00 36 1022.7
20260831181007 76 19 2.0 8.0 0.00 0.02 0.00 34 1022.7
20260831180505 76 19 1.0 8.0 0.00 0.02 0.00 36 1022.8
20260831180007 76 20 5.0 8.0 0.00 0.02 0.00 34 1022.8
20260831180004 76 20 5.0 8.0 0.00 0.02 0.00 34 1008.7
20260831175008 76 42 3.0 6.0 0.00 0.02 0.00 36 1022.7
20260831174505 76 340 1.0 6.0 0.00 0.02 0.00 35 1022.8
20260831174503 76 340 1.0 6.0 0.00 0.02 0.00 35 1008.7
20260831174006 76 340 3.0 7.0 0.00 0.02 0.00 37 1022.7
20260831173504 76 49 5.0 8.0 0.00 0.02 0.00 36 1022.7
20260831173002 76 25 2.0 5.0 0.00 0.02 0.00 35 1008.7
20260831172505 76 9 2.0 4.0 0.00 0.02 0.00 36 1022.8
20260831171503 75 5 1.0 4.0 0.00 0.02 0.00 39 1008.7
20260831171006 75 314 1.0 3.0 0.00 0.02 0.00 37 1022.8
20260831170504 74 181 0.0 4.0 0.00 0.02 0.00 37 1023.0
20260831170007 74 233 3.0 4.0 0.00 0.02 0.00 38 1022.8
20260831170005 74 233 2.0 4.0 0.00 0.02 0.00 38 1008.8
20260831165504 75 242 2.0 3.0 0.00 0.02 0.00 37 1022.9
20260831165007 75 54 1.0 4.0 0.00 0.02 0.00 38 1023.0
20260831164509 74 79 1.0 4.0 0.00 0.02 0.00 38 1008.9
20260831164505 74 79 1.0 4.0 0.00 0.02 0.00 38 1022.9
20260831163006 73 316 2.0 4.0 0.00 0.02 0.00 40 1022.8
20260831163003 73 316 2.0 4.0 0.00 0.02 0.00 40 1008.8
20260831162006 73 294 2.0 4.0 0.00 0.02 0.00 39 1022.7
20260831161505 73 294 2.0 4.0 0.00 0.02 0.00 39 1022.7
20260831161503 73 294 1.0 4.0 0.00 0.02 0.00 39 1008.6
20260831161007 73 294 1.0 5.0 0.00 0.02 0.00 38 1022.6
20260831160505 73 294 2.0 5.0 0.00 0.02 0.00 39 1022.6
20260831160007 73 63 2.0 4.0 0.00 0.02 0.00 38 1022.6
20260831160003 73 63 1.0 4.0 0.00 0.02 0.00 38 1008.5
20260831155505 72 215 2.0 4.0 0.00 0.02 0.00 38 1022.5
20260831155008 72 215 2.0 3.0 0.00 0.02 0.00 43 1022.5
20260831154504 71 215 1.0 4.0 0.00 0.02 0.00 44 1008.3
20260831154002 71 215 1.0 4.0 0.00 0.02 0.00 46 1022.6
20260831153505 70 215 0.0 3.0 0.00 0.02 0.00 50 1022.4
20260831153009 70 215 1.0 5.0 0.00 0.02 0.00 52 1008.2
20260831153007 70 215 1.0 5.0 0.00 0.02 0.00 52 1022.4
20260831152505 69 215 2.0 5.0 0.00 0.02 0.00 52 1022.4
20260831152006 69 215 2.0 6.0 0.00 0.02 0.00 53 1022.4
20260831151506 69 215 3.0 6.0 0.00 0.02 0.00 51 1022.4
20260831151503 69 215 2.0 6.0 0.00 0.02 0.00 51 1008.3
20260831151005 69 258 1.0 5.0 0.00 0.02 0.00 53 1022.4
20260831150506 68 205 3.0 6.0 0.00 0.02 0.00 51 1022.3
20260831150007 68 205 3.0 6.0 0.00 0.02 0.00 51 1022.4
20260831150004 68 205 2.0 6.0 0.00 0.02 0.00 51 1008.3
20260831145504 68 192 3.0 6.0 0.00 0.02 0.00 52 1022.4
20260831144558 68 235 1.0 8.0 0.00 0.02 0.00 54 1008.2
20260831144505 68 235 2.0 8.0 0.00 0.02 0.00 54 1022.4
20260831144502 68 235 2.0 8.0 0.00 0.02 0.00 54 1008.2
20260831144005 67 221 3.0 8.0 0.00 0.02 0.00 53 1022.4
20260831143505 67 223 5.0 8.0 0.00 0.02 0.00 52 1022.3
20260831143006 66 190 4.0 5.0 0.00 0.02 0.00 54 1022.3
20260831143003 66 190 3.0 5.0 0.00 0.02 0.00 54 1008.2
20260831142505 66 175 3.0 5.0 0.00 0.02 0.00 56 1022.2
20260831142006 65 175 4.0 5.0 0.00 0.02 0.00 54 1022.2
20260831141505 65 205 2.0 5.0 0.00 0.02 0.00 55 1008.1
20260831141005 64 214 2.0 6.0 0.00 0.02 0.00 55 1022.1
20260831140008 64 236 3.0 6.0 0.00 0.02 0.00 56 1022.1
20260831140003 64 236 3.0 6.0 0.00 0.02 0.00 56 1008.0
20260831135504 64 227 4.0 7.0 0.00 0.02 0.00 58 1022.1
20260831135005 64 225 4.0 7.0 0.00 0.02 0.00 57 1022.1
20260831134503 63 217 4.0 6.0 0.00 0.02 0.00 57 1007.9
20260831133506 62 236 4.0 8.0 0.00 0.02 0.00 58 1021.8
20260831133006 62 198 3.0 5.0 0.00 0.02 0.00 60 1007.8
20260831132504 61 215 2.0 6.0 0.00 0.02 0.00 61 1021.7
20260831132006 61 177 3.0 6.0 0.00 0.02 0.00 61 1021.6
20260831131505 60 221 3.0 6.0 0.00 0.02 0.00 61 1021.5
20260831131006 59 203 3.0 5.0 0.00 0.02 0.00 62 1021.4
20260831130505 59 226 2.0 4.0 0.00 0.02 0.00 63 1021.3
20260831130007 59 226 2.0 4.0 0.00 0.02 0.00 63 1021.2
20260831130003 59 226 1.0 4.0 0.00 0.02 0.00 63 1007.2
20260831125505 59 226 2.0 4.0 0.00 0.02 0.00 63 1021.0
20260831125006 59 226 1.0 3.0 0.00 0.02 0.00 62 1021.0
20260831124504 59 226 0.0 4.0 0.00 0.02 0.00 62 1006.9
20260831124005 59 226 2.0 6.0 0.00 0.02 0.00 61 1020.9
20260831123504 59 226 2.0 6.0 0.00 0.02 0.00 62 1020.8
20260831123005 59 232 3.0 7.0 0.00 0.02 0.00 62 1020.7
20260831123003 59 232 2.0 7.0 0.00 0.02 0.00 62 1006.7
20260831122504 59 229 3.0 7.0 0.00 0.02 0.00 62 1020.7
20260831122006 59 233 2.0 5.0 0.00 0.02 0.00 63 1020.7
20260831121505 58 233 2.0 6.0 0.00 0.02 0.00 64 1020.6
20260831120506 58 229 1.0 3.0 0.00 0.02 0.00 65 1020.7
20260831120007 58 229 2.0 3.0 0.00 0.02 0.00 65 1020.9
20260831120004 58 229 1.0 3.0 0.00 0.02 0.00 65 1006.8
20260831115006 57 229 2.0 4.0 0.00 0.02 0.00 67 1020.7
20260831114505 57 229 2.0 3.0 0.00 0.02 0.00 68 1006.6
20260831114004 57 229 1.0 2.0 0.00 0.02 0.00 68 1020.6
20260831113007 57 229 1.0 3.0 0.00 0.02 0.00 67 1020.6
20260831112504 58 229 1.0 3.0 0.00 0.02 0.00 67 1020.6
20260831112007 58 229 0.0 3.0 0.00 0.02 0.00 67 1020.5
20260831111505 58 229 1.0 5.0 0.00 0.02 0.00 66 1020.5
20260831111503 58 229 1.0 5.0 0.00 0.02 0.00 66 1006.3
20260831111005 59 229 1.0 5.0 0.00 0.02 0.00 65 1020.5
20260831110505 59 229 2.0 5.0 0.00 0.02 0.00 65 1020.5
20260831110006 59 217 2.0 6.0 0.00 0.02 0.00 65 1020.4
20260831105505 59 232 3.0 6.0 0.00 0.02 0.00 65 1020.4
20260831105004 59 202 3.0 6.0 0.00 0.02 0.00 65 1020.4
20260831104505 59 220 3.0 7.0 0.00 0.02 0.00 65 1020.3
20260831104503 59 220 3.0 7.0 0.00 0.02 0.00 65 1006.1
20260831104005 59 246 1.0 4.0 0.00 0.02 0.00 65 1020.3
20260831103505 60 246 2.0 6.0 0.00 0.02 0.00 63 1020.3
20260831103005 60 236 4.0 8.0 0.00 0.02 0.00 62 1020.4
20260831103003 60 236 4.0 8.0 0.00 0.02 0.00 62 1006.2
20260831102504 60 234 3.0 8.0 0.00 0.02 0.00 63 1020.4
20260831102006 60 243 1.0 7.0 0.00 0.02 0.00 63 1020.3
20260831101503 60 202 1.0 7.0 0.00 0.02 0.00 63 1006.0
20260831101005 60 257 2.0 7.0 0.00 0.02 0.00 64 1020.3
20260831100504 59 246 3.0 7.0 0.00 0.02 0.00 65 1020.3
20260831100006 59 240 2.0 4.0 0.00 0.02 0.00 66 1020.3
20260831100004 59 240 2.0 4.0 0.00 0.02 0.00 66 1006.0
20260831095504 59 240 2.0 4.0 0.00 0.02 0.00 66 1020.3
20260831095005 60 240 1.0 5.0 0.00 0.02 0.00 65 1020.3
20260831094505 60 259 2.0 7.0 0.00 0.02 0.00 66 1020.3
20260831094004 59 183 4.0 7.0 0.00 0.02 0.00 66 1020.3
20260831093505 59 220 2.0 5.0 0.00 0.02 0.00 67 1020.3
20260831093005 59 209 2.0 5.0 0.00 0.02 0.00 68 1020.3
20260831093003 59 209 1.0 5.0 0.00 0.02 0.00 68 1006.1
20260831092505 60 209 2.0 7.0 0.00 0.02 0.00 68 1020.3
20260831091504 59 211 2.0 6.0 0.00 0.02 0.00 68 1020.3
20260831091006 59 188 3.0 6.0 0.00 0.02 0.00 69 1020.3
20260831090506 59 202 3.0 6.0 0.00 0.02 0.00 70 1020.3
20260831090005 59 229 3.0 6.0 0.00 0.02 0.00 70 1020.3
20260831090003 59 229 3.0 6.0 0.00 0.02 0.00 70 1006.0
20260831085504 59 242 3.0 6.0 0.00 0.02 0.00 71 1020.3
20260831085006 58 200 2.0 4.0 0.00 0.02 0.00 71 1020.4
20260831084503 58 200 1.0 4.0 0.00 0.02 0.00 73 1006.2
20260831084005 57 200 2.0 4.0 0.00 0.02 0.00 74 1020.4
20260831083505 57 200 1.0 4.0 0.00 0.02 0.00 74 1020.4
20260831083007 57 200 0.0 4.0 0.00 0.02 0.00 74 1006.2
20260831082005 58 200 3.0 5.0 0.00 0.02 0.00 72 1020.5
20260831081505 58 200 3.0 4.0 0.00 0.02 0.00 73 1020.5
20260831081503 58 200 3.0 4.0 0.00 0.02 0.00 73 1006.3
20260831080504 57 200 2.0 3.0 0.00 0.02 0.00 75 1020.7
20260831080006 57 200 2.0 4.0 0.00 0.02 0.00 75 1020.7
20260831080003 57 200 1.0 4.0 0.00 0.02 0.00 75 1006.5
20260831075504 57 200 2.0 4.0 0.00 0.02 0.00 77 1020.7
20260831075006 56 200 2.0 4.0 0.00 0.02 0.00 77 1020.9
20260831074504 56 200 2.0 4.0 0.00 0.02 0.00 78 1021.0
20260831074006 57 200 2.0 4.0 0.00 0.02 0.00 79 1021.0
20260831073504 57 200 1.0 3.0 0.00 0.02 0.00 78 1020.9
20260831073009 57 200 1.0 4.0 0.00 0.02 0.00 79 1006.6
20260831073005 57 200 1.0 4.0 0.00 0.02 0.00 79 1020.8
20260831072504 57 200 2.0 4.0 0.00 0.02 0.00 79 1020.9
20260831072006 57 200 2.0 3.0 0.00 0.02 0.00 78 1020.7
20260831071504 57 200 2.0 5.0 0.00 0.02 0.00 78 1020.8
20260831071502 57 200 1.0 5.0 0.00 0.02 0.00 78 1006.5
20260831070505 57 237 1.0 4.0 0.00 0.02 0.00 79 1021.0